Other Public Products
Issued by NWS Grand Forks, ND

Home | Current Version | Previous Version | Graphics & Text | Print | Product List | Glossary On
Versions: 1 2 3 4 5 6 7 8 9 10 11 12 13 14 15 16 17 18 19 20 21 22 23 24 25 26 27 28 29 30 31 32 33 34 35 36 37 38 39 40 41 42 43 44 45 46 47 48 49 50
000
FPUS83 KFGF 210810
OPUFGF
PRAIRIE TO PINES WEATHER ROUNDUP
NATIONAL WEATHER SERVICE EASTERN NORTH DAKOTA/GRAND FORKS ND
300 AM CDT THU AUG 21 2014

 **SATELLITE DATA USED TO AUGMENT SKY COVER AT AUTOMATED STATIONS**
 *****  WEATHER ACROSS EASTERN NORTH DAKOTA  *****

CITY           SKY/WX    TMP DP  RH WIND       PRES   REMARKS
GRAND FORKS    MOCLDY    71  65  81 SE14G21   29.71F
GRAND FORKS AF CLOUDY    68  68  99 SE10      29.72S
GRAND CITY NWS   N/A     52 N/A N/A E14         N/A
BUXTON         NOT AVBL
DEVILS LAKE    CLOUDY    70  64  83 E6        29.70S
FARGO          CLOUDY    72  66  81 SE13      29.73S
WAHPETON ARPT  CLOUDY    68  64  88 E14G20    29.73R
$$

 *****  WEATHER ACROSS CENTRAL AND WESTERN NORTH DAKOTA  *****

CITY           SKY/WX    TMP DP  RH WIND       PRES   REMARKS
JAMESTOWN      CLOUDY    71  68  90 CALM      29.68R
BISMARCK       CLOUDY    69  67  93 NW8       29.72F
MINOT          CLOUDY    65  63  93 CALM      29.73F
MINOT AFB      CLOUDY    64  64 100 NW1       29.74S
GARRISON         N/A     65  64  97 NW8       29.74F
WILLISTON      PTCLDY    59  58  96 E3        29.80S
DICKINSON      CLEAR     57  56  96 NW5       29.80S
HETTINGER      CLEAR     55  53  93 NW6       29.82F
$$

 *****  OTHER OBSERVATIONS NORTHEAST NORTH DAKOTA  *****

CITY           SKY/WX    TMP DP  RH WIND       PRES   REMARKS
WALHALLA         N/A     68  68 100 E3        29.73F
LANGDON        CLOUDY    68  66  94 SE3       29.75S
CAVALIER       FAIR      66  64  94 SE3       29.73F
GRAFTON        FAIR      66  66 100 E8        29.71F
CANDO          CLOUDY    68  68 100 N5        29.74S
FORT TOTTEN    NOT AVBL
ROLLA          LGT RAIN  63  63 100 NW3       29.80R
RUGBY          TSTM      68  68 100 N7        29.74S
 ***** THE ABOVE OBSERVATIONS ARE NON NWS ARE NOT QUALITY
        CONTROLLED AND MAY MIS-REPORT RAIN FOR SNOW...
$$

 *****  OTHER OBSERVATIONS SOUTHEAST NORTH DAKOTA *****

CITY           SKY/WX    TMP DP  RH WIND       PRES   REMARKS
COOPERSTOWN    NOT AVBL
VALLEY CITY    FAIR      68  68 100 SE13G22   29.67R
OAKES          NOT AVBL
GWINNER        CLOUDY    72  72 100 E20G26    29.65F
SHEYENNE NWR     N/A     70  68  94 E14       29.95S
BUFFALO        NOT AVBL
WYNDMERE       NOT AVBL
 ***** THE ABOVE OBSERVATIONS ARE NON NWS ARE NOT QUALITY
       CONTROLLED AND MAY MIS-REPORT RAIN FOR SNOW...
$$

  *****  WEATHER ACROSS NORTHERN MINNESOTA  *****

CITY           SKY/WX    TMP DP  RH WIND       PRES   REMARKS
FLAG ISLAND    CLEAR     68  63  83 SE7       29.81F
WARROAD        CLEAR     64  61  88 SE6       29.81F
ROSEAU         PTCLDY    64  61  88 SE7       29.79F
HALLOCK        MOCLDY    66  64  94 E6        29.73F
THF RVR FALLS  MOCLDY    64  63  94 E10       29.77F
HALSTAD          N/A     69  64  85 SE14        N/A
FOSSTON        MOCLDY    64  61  88 SE7       29.79F
BAUDETTE       CLEAR     62  60  93 SE7       29.83F
WASKISH        PTCLDY    63  61  94 CALM      29.84R
CROOKSTON      MOCLDY    68  64  88 SE12      29.74F
$$
  *****  WEATHER ACROSS CENTRAL AND WEST MINNESOTA  *****

CITY           SKY/WX    TMP DP  RH WIND       PRES   REMARKS
BEMIDJI        MOCLDY    63  62  95 E8        29.82F
PARK RAPIDS    CLOUDY    66  62  87 SE10      29.81F
WADENA         TSTM      64  63  94 E9        29.77F
DETROIT LAKES  CLOUDY    68  63  83 SE14G21   29.78F
MOORHEAD       TSTM      72  70  94 SE7       29.75S
FERGUS FALLS   TSTM      70  66  88 SE3       29.76R
ELBOW LAKE     TSTM      68  67  96 E8        29.75S
MORRIS MN      TSTM      70  70 100 SE21      29.71F
STAPLES        CLOUDY    64  61  88 E6        29.80F
WHEATON        CLOUDY    66  66 100 SE14      29.71F
$$
  *****  WEATHER ELSEWHERE ACROSS MINNESOTA  *****

CITY           SKY/WX    TMP DP  RH WIND       PRES   REMARKS
DULUTH         CLOUDY    61  59  93 E10       29.91F
INTRNTL FALLS  CLEAR     56  56 100 E5        29.87F
ELY            CLOUDY    57  55  94 SE6       29.93F
CLOQUET        CLOUDY    61  59  94 E8        29.91S FOG
BRAINERD       MOCLDY    66  62  87 SE7       29.83F
HIBBING        CLOUDY    60  59  96 SE9       29.90F FOG
ALEXANDRIA     LGT RAIN  68  66  93 N7        29.79R
SAINT CLOUD    LGT RAIN  70  63  78 E8        29.79F
MINNEAPOLIS    CLOUDY    71  66  84 SE12      29.81F
$$

  *****  WEATHER ACROSS SOUTH DAKOTA  *****

CITY           SKY/WX    TMP DP  RH WIND       PRES   REMARKS
SIOUX FALLS    PTCLDY    77  72  84 S13       29.68F
BROOKINGS      NOT AVBL
WATERTOWN      RAIN      66  65  96 N16       29.74R FOG
HURON          CLOUDY    71  65  81 NE16G28   29.70R
SISSETON         N/A     69  69 100 MISG      29.74R
ABERDEEN       MOCLDY    65  65 100 E5        29.65F
MITCHELL       CLEAR     76  73  91 S8        29.65S
PIERRE         CLEAR     65  63  93 NW13      29.70R
MOBRIDGE       PTCLDY    65  64  97 N6        29.68S
RAPID CITY     MOCLDY    66  59  78 N8        29.86R
$$

  *****  SOME WEATHER IN NEARBY STATES *****

CITY           SKY/WX    TMP DP  RH WIND       PRES   REMARKS
GLASGOW MT     MOCLDY    64  60  87 N8        29.84R
GREAT FALLS MT CLOUDY    54  52  93 W10       30.01R
CHEYENNE WY    PTCLDY    60  45  57 W21       30.08R
SCOTTSBLUFF NE CLEAR     66  52  60 N5        29.91R
OMAHA NE       MOCLDY    80  69  69 S15       29.77F
DES MOINES IA  PTCLDY    77  72  84 S7        29.82F
DAVENPORT IA   MOCLDY    71  68  90 E8        29.91F
CHICAGO IL     CLOUDY    72  65  78 S10       29.95S
EAU CLAIRE WI  PTCLDY    66  63  90 E7        29.88F
LA CROSSE WI   CLOUDY    72  66  81 E6        29.89S
$$

  *****  SOME NATIONAL WEATHER *****

CITY           SKY/WX    TMP DP  RH WIND       PRES   REMARKS
LA GUARDIA NY  CLOUDY    73  62  68 W3        30.02F
RALEIGH NC     MOCLDY    72  70  93 CALM      29.99S FOG
ATLANTA GA     CLOUDY    70  67  90 NW5       30.10R
NEW ORLEANS LA PTCLDY    78  73  84 CALM      30.07F
OKLAHOMA CITY  PTCLDY    80  68  66 S13       29.92S
ALBUQUERQUE NM PTCLDY    68  46  45 SE8       30.09F
SALT LAKE CITY CLOUDY    66  53  63 S13       30.00S
LOS ANGELES CA CLEAR     67  60  78 SW6       29.93S
BOISE ID       PTCLDY    67  51  56 SW6       29.88R
SEATTLE WA     CLEAR     57  51  80 SW3       30.03R
$$

*** WEATHER ACROSS MANITOBA...SASKATCHEWAN AND ONTARIO ***
                ***ONTARIO***

CITY           SKY/WX    TMP DP  RH WIND       PRES   REMARKS
GERALDTON      DRIZZLE   61  61 100 CALM      29.99S FOG
THUNDER BAY    CLOUDY    61  61 100 CALM      29.96S
SIOUX LOOKOUT  CLEAR     59  57  94 SE5       29.92S
TORONTO        CLOUDY    66  64  94 CALM      29.91S
BIG TROUT LK   CLEAR     64  57  77 S8        29.96R
PICKLE LAKE    NOT AVBL
DRYDEN         CLEAR     63  59  88 SE6       29.91S
KENORA         CLEAR     63  59  88 SE6       29.87F
$$
                *** MANITOBA***

CITY           SKY/WX    TMP DP  RH WIND       PRES   REMARKS
BRANDON        LGT RAIN  64  63  94 E9        29.78S
DAUPHIN        RAIN      64  63  94 E7        29.78R
ISLAND LAKE    PTCLDY    70  59  68 S5        29.82S
PILOT MOUND      N/A     66  64  94 N6          N/A
THE PAS        CLOUDY    63  57  82 NW15      29.77R
THOMPSON       LGT RAIN  64  64 100 S2        29.71S
WINNIPEG       MOCLDY    68  63  83 SE8       29.77F
LYNN LAKE      CLOUDY    52  52 100 MISG      29.83R
CHURCHILL      PTCLDY    48  48 100 NW7       29.73F
GILLAM         CLOUDY    68  59  73 S7        29.76S
$$
                ***SASKATCHEWAN***

CITY           SKY/WX    TMP DP  RH WIND       PRES   REMARKS
ESTEVAN        PTCLDY    61  61 100 NW3       29.79F
KINDERSLEY     MOCLDY    57  55  94 N7        29.96R
LLOYDMINSTER   CLEAR     50  48  93 NW5       30.00R
PRINCE ALBERT  PTCLDY    55  55 100 W8        29.89R
REGINA         PTCLDY    59  59 100 NW8       29.84R



USA.gov is the U.S. government's official web portal to all federal, state and local government web resources and services.